sat.trackr.live / text

‹ back to catalog

STARLINK-31755

NORAD 59607 · 2024-080G

PAYLOAD ACTIVE UNKNOWN

§ Identity

Operator
Country
US
Launch date
2024-04-28
Launch site
AFETR
Launch vehicle
Mass (kg)
RCS (m²)

Purposes: comms

External: N2YO · Heavens-Above · Gunter

§ Orbital elements

Epoch: 2026-05-24T20:09:27.345312Z

Period
94.27 min
Inclination
43.0039°
Eccentricity
0.0001248
Mean motion
15.27574294 rev/d
Perigee alt
482.2 km
Apogee alt
483.9 km
Semi-major
6,861.2 km
B*
1.1698e-6
RAAN
331.7620°
Arg perigee
275.2981°
Mean anomaly
84.7728°
Rev number
11,613

§ Raw data

STARLINK-317551 59607U 24080G   26144.83989983 -.00000230  00000+0  11698-5 0  99902 59607  43.0039 331.7620 0001248 275.2981  84.7728 15.27574294116133

JSON: /api/v1/satellites/59607 · /tle

For live sub-satellite position, see the globe view (requires WebGL).

§ Visibility from observer

Set your observer location to see the next 7 days of passes ≥ 10°. The values pass through the URL so the page stays shareable.

No JS? Fill the form by hand. The geolocation button needs JavaScript.